Weather Service Report


564 
ASUS41 KRLX 281810
RWRRLX
West Virginia Regional Weather Roundup
National Weather Service Charleston WV
200 PM EDT SUN MAY 28 2017

Note: "fair" indicates few or no clouds below 12,000 feet with no
significant weather and/or obstructions to visibility.

WVZ003-281900-
Northern Panhandle of West Virginia
  
CITY           SKY/WX    TMP DP  RH WIND       PRES   REMARKS
WHEELING       CLOUDY    74  64  71 S7        29.78F                  
$$

WVZ009-281900-
Northwest West Virginia
  
CITY           SKY/WX    TMP DP  RH WIND       PRES   REMARKS
PARKERSBURG    MOSUNNY   79  63  57 S10G18    29.80F                  
$$

WVZ006-281900-
Western West Virginia
  
CITY           SKY/WX    TMP DP  RH WIND       PRES   REMARKS
HUNTINGTON     CLOUDY    73  63  70 SW6       29.81F                  
$$

WVZ015-281900-
West Central West Virginia
  
CITY           SKY/WX    TMP DP  RH WIND       PRES   REMARKS
CHARLESTON     CLOUDY    76  61  59 SW8       29.82F                  
$$

WVZ022-031-281900-
North Central West Virginia
  
CITY           SKY/WX    TMP DP  RH WIND       PRES   REMARKS
CLARKSBURG     MOSUNNY   77  63  61 S9        29.81F                  
MORGANTOWN     PTSUNNY   76  63  64 SW7       29.81F                  
$$

WVZ025-035-042-045-281900-
Southern West Virginia
  
CITY           SKY/WX    TMP DP  RH WIND       PRES   REMARKS
BECKLEY        MOSUNNY   71  59  65 SW7       29.90F                  
LOGAN          PTSUNNY   73  63  68 CALM      29.85F                  
BLUEFIELD      PTSUNNY   69  57  65 W8        29.92F                  
LEWISBURG      CLOUDY    73  61  67 SW8       29.88F                  
$$

WVZ047-281900-
Northern Mountains of West Virginia
  
CITY           SKY/WX    TMP DP  RH WIND       PRES   REMARKS
ELKINS         CLOUDY    75  60  59 W7        29.86F                  
$$

WVZ052-281900-
Eastern Panhandle of West Virginia
  
CITY           SKY/WX    TMP DP  RH WIND       PRES   REMARKS
MARTINSBURG    CLOUDY    71  61  70 SE5       29.86S                  
PETERSBURG     CLOUDY    69  66  91 CALM      29.86S                  
$$
  

Return to Home page


Western Regional Climate Center, wrcc@dri.edu